Location: Chantarel
(45.1638°N, 1.7873°E)
Time: 18:05:52
(UTC+00:00)

ERS-2 - Pass Details

Date: 03 March 2021
Orbit: 492 x 496 km, 98.6° (Epoch: 15 April)

Event Time Altitude Azimuth Distance (km) Brightness Sun altitude
Rises 18:23:12 0° 20° (NNE) 2,593 5.5 -7.9°
Reaches altitude 10° 18:25:22 10° 27° (NNE) 1,706 4.6 -8.3°
Maximum altitude 18:28:53 44° 100° (E) 702 2.4 -8.9°
Drops below altitude 10° 18:32:22 10° 174° (S) 1,692 4.8 -9.5°
Sets 18:34:30 0° 181° (S) 2,570 5.8 -9.9°
